K3RTA-2 Weather Reports


Display with metric or nautical units.
time (UTC)temp
F
wind
direction
speed
MPH
gust
MPH
rain 1hr
in
rain 24hr
in
rain mn
in
humidity
%
barometer
mb
20260831220505 77 142 2.0 3.0 0.00 0.00 0.00 90 1019.2
20260831220004 78 139 1.0 3.0 0.00 0.00 0.00 90 1019.2
20260831215504 78 125 1.0 3.0 0.00 0.00 0.00 90 1019.2
20260831215004 78 120 1.0 3.0 0.00 0.00 0.00 89 1019.2
20260831214504 78 84 0.0 3.0 0.00 0.00 0.00 90 1019.3
20260831214004 78 128 1.0 3.0 0.00 0.00 0.00 89 1019.2
20260831213504 78 119 2.0 3.0 0.00 0.00 0.00 89 1019.2
20260831213005 79 144 0.0 3.0 0.00 0.00 0.00 88 1019.1
20260831212504 79 117 0.0 3.0 0.00 0.00 0.00 88 1019.1
20260831212004 79 110 1.0 6.0 0.00 0.00 0.00 87 1019.0
20260831211504 80 151 1.0 10.0 0.00 0.00 0.00 87 1018.9
20260831211005 80 132 5.0 10.0 0.00 0.00 0.00 86 1018.8
20260831210004 81 145 2.0 9.0 0.00 0.00 0.00 86 1018.9
20260831205503 81 127 1.0 9.0 0.00 0.00 0.00 86 1018.9
20260831205004 81 110 2.0 5.0 0.00 0.00 0.00 86 1018.9
20260831204503 81 139 2.0 5.0 0.00 0.00 0.00 85 1018.9
20260831204004 82 96 1.0 5.0 0.00 0.00 0.00 85 1018.8
20260831203503 82 116 1.0 7.0 0.00 0.00 0.00 86 1018.6
20260831202004 82 145 2.0 6.0 0.00 0.00 0.00 85 1018.4
20260831201504 82 124 2.0 6.0 0.00 0.00 0.00 85 1018.4
20260831201005 82 74 2.0 6.0 0.00 0.00 0.00 86 1018.4
20260831200004 82 144 2.0 6.0 0.00 0.00 0.00 85 1018.4
20260831195504 82 86 1.0 6.0 0.00 0.00 0.00 86 1018.5
20260831195004 82 67 0.0 6.0 0.00 0.00 0.00 86 1018.5
20260831194504 82 123 1.0 6.0 0.00 0.00 0.00 86 1018.5
20260831194004 82 55 2.0 6.0 0.00 0.00 0.00 85 1018.5
20260831193504 83 68 1.0 5.0 0.00 0.00 0.00 85 1018.5
20260831192004 83 31 2.0 6.0 0.00 0.00 0.00 86 1018.4
20260831191504 82 117 1.0 6.0 0.00 0.00 0.00 86 1018.5
20260831191004 82 55 3.0 7.0 0.00 0.00 0.00 86 1018.6
20260831190504 83 31 2.0 8.0 0.00 0.00 0.00 85 1018.7
20260831190004 84 123 3.0 8.0 0.00 0.00 0.00 84 1018.7
20260831185504 84 19 1.0 3.0 0.00 0.00 0.00 85 1018.6
20260831185004 84 44 1.0 5.0 0.00 0.00 0.00 85 1018.6
20260831184004 84 51 1.0 5.0 0.00 0.00 0.00 83 1018.6
20260831183505 85 84 0.0 3.0 0.00 0.00 0.00 82 1018.7
20260831183004 85 89 0.0 3.0 0.00 0.00 0.00 82 1018.8
20260831182504 85 63 1.0 3.0 0.00 0.00 0.00 81 1018.7
20260831182004 85 50 1.0 5.0 0.00 0.00 0.00 80 1018.7
20260831180504 85 42 2.0 3.0 0.00 0.00 0.00 81 1018.7
20260831180005 85 90 1.0 3.0 0.00 0.00 0.00 81 1018.8
20260831175504 84 89 0.0 5.0 0.00 0.00 0.00 82 1018.7
20260831175004 85 111 2.0 5.0 0.00 0.00 0.00 81 1018.8
20260831174504 84 113 0.0 3.0 0.00 0.00 0.00 80 1018.8
20260831174004 85 132 0.0 5.0 0.00 0.00 0.00 80 1018.7
20260831173005 84 133 1.0 5.0 0.00 0.00 0.00 80 1018.8
20260831172004 84 71 1.0 3.0 0.00 0.00 0.00 80 1018.9
20260831171504 84 63 0.0 3.0 0.00 0.00 0.00 81 1018.9
20260831171004 84 63 1.0 5.0 0.00 0.00 0.00 81 1019.0
20260831170504 84 68 2.0 5.0 0.00 0.00 0.00 80 1019.0
20260831170004 84 58 1.0 3.0 0.00 0.00 0.00 80 1019.0
20260831164505 85 159 2.0 5.0 0.00 0.00 0.00 78 1019.1
20260831164004 85 128 1.0 3.0 0.00 0.00 0.00 80 1019.1
20260831163503 85 56 1.0 5.0 0.00 0.00 0.00 80 1019.1
20260831162504 84 86 1.0 5.0 0.00 0.00 0.00 80 1019.4
20260831161504 84 80 1.0 5.0 0.00 0.00 0.00 80 1019.4
20260831161004 83 141 2.0 5.0 0.00 0.00 0.00 79 1019.4
20260831160504 84 94 0.0 3.0 0.00 0.00 0.00 80 1019.4
20260831155504 83 102 2.0 3.0 0.00 0.00 0.00 80 1019.5
20260831155004 83 49 1.0 3.0 0.00 0.00 0.00 80 1019.5
20260831154504 83 150 2.0 5.0 0.00 0.00 0.00 79 1019.5
20260831154005 83 124 1.0 7.0 0.00 0.00 0.00 80 1019.6
20260831152504 82 110 2.0 6.0 0.00 0.00 0.00 81 1019.6
20260831152003 82 33 1.0 5.0 0.00 0.00 0.00 83 1019.5
20260831151004 81 69 0.0 3.0 0.00 0.00 0.00 85 1019.6
20260831150503 81 121 1.0 3.0 0.00 0.00 0.00 85 1019.6
20260831145503 82 77 0.0 5.0 0.00 0.00 0.00 84 1019.5
20260831145004 82 64 2.0 5.0 0.00 0.00 0.00 85 1019.5
20260831144504 82 17 2.0 5.0 0.00 0.00 0.00 84 1019.5
20260831144004 82 131 2.0 5.0 0.00 0.00 0.00 84 1019.4
20260831143504 81 75 0.0 9.0 0.00 0.00 0.00 85 1019.5
20260831142504 82 121 0.0 6.0 0.00 0.00 0.00 86 1019.4
20260831142005 81 100 1.0 6.0 0.00 0.00 0.00 86 1019.4
20260831141504 81 154 2.0 6.0 0.00 0.00 0.00 86 1019.5
20260831141004 81 126 2.0 6.0 0.00 0.00 0.00 88 1019.6
20260831140504 80 92 1.0 5.0 0.00 0.00 0.00 89 1019.5
20260831140003 80 61 1.0 3.0 0.00 0.00 0.00 91 1019.5
20260831135504 79 40 2.0 3.0 0.00 0.00 0.00 93 1019.5
20260831135004 78 34 1.0 3.0 0.00 0.00 0.00 93 1019.6
20260831134504 78 39 1.0 5.0 0.00 0.00 0.00 93 1019.7
20260831134004 78 68 1.0 5.0 0.00 0.00 0.00 94 1019.7
20260831133504 78 65 0.0 5.0 0.00 0.00 0.00 95 1019.7
20260831133004 78 85 1.0 5.0 0.00 0.00 0.00 95 1019.6
20260831132503 78 94 1.0 2.0 0.00 0.00 0.00 97 1019.6
20260831132004 77 56 0.0 3.0 0.00 0.00 0.00 97 1019.5
20260831131504 77 94 0.0 3.0 0.00 0.00 0.00 98 1019.5
20260831131004 77 123 0.0 1.0 0.00 0.00 0.00 98 1019.7
20260831130504 76 106 0.0 1.0 0.00 0.00 0.00 98 1019.7
20260831130004 76 128 0.0 1.0 0.00 0.00 0.00 98 1019.7
20260831125504 76 39 0.0 2.0 0.00 0.00 0.00 98 1019.7
20260831125004 75 40 1.0 2.0 0.00 0.00 0.00 98 1019.6
20260831124504 75 18 0.0 2.0 0.00 0.00 0.00 98 1019.5
20260831124004 75 19 0.0 1.0 0.00 0.00 0.00 98 1019.6
20260831123503 74 18 0.0 1.0 0.00 0.00 0.00 98 1019.6
20260831123003 74 20 0.0 1.0 0.00 0.00 0.00 98 1019.5
20260831121504 74 19 0.0 1.0 0.00 0.00 0.00 98 1019.3
20260831121004 74 19 0.0 0.0 0.00 0.00 0.00 98 1019.2
20260831120504 73 19 0.0 0.0 0.00 0.00 0.00 98 1019.2
20260831120004 73 18 0.0 0.0 0.00 0.00 0.00 98 1019.2
20260831115505 73 16 0.0 0.0 0.00 0.00 0.00 98 1019.3
20260831115004 73 16 0.0 0.0 0.00 0.00 0.00 98 1019.3
20260831114504 73 16 0.0 0.0 0.00 0.00 0.00 98 1019.4
20260831113504 73 16 0.0 2.0 0.00 0.00 0.00 98 1019.4
20260831113004 73 15 1.0 2.0 0.00 0.00 0.00 98 1019.4
20260831112505 72 38 0.0 1.0 0.00 0.00 0.00 98 1019.4
20260831112004 72 38 0.0 1.0 0.00 0.00 0.00 98 1019.3
20260831111005 72 37 0.0 0.0 0.00 0.00 0.00 98 1019.2
20260831110504 72 38 0.0 0.0 0.00 0.00 0.00 98 1019.1
20260831110004 71 37 0.0 0.0 0.00 0.00 0.00 98 1019.1
20260831105504 71 37 0.0 0.0 0.00 0.00 0.00 98 1018.9
20260831105003 71 37 0.0 0.0 0.00 0.00 0.00 98 1018.9
20260831104504 71 37 0.0 0.0 0.00 0.00 0.00 98 1018.9
20260831104004 71 37 0.0 0.0 0.00 0.00 0.00 98 1018.8
20260831103504 71 37 0.0 0.0 0.00 0.00 0.00 98 1018.8
20260831102503 71 37 0.0 0.0 0.00 0.00 0.00 98 1018.6
20260831102004 71 37 0.0 0.0 0.00 0.00 0.00 98 1018.6
20260831101504 72 37 0.0 0.0 0.00 0.00 0.00 98 1018.5
20260831100504 72 37 0.0 0.0 0.00 0.00 0.00 98 1018.4
20260831100003 72 37 0.0 0.0 0.00 0.00 0.00 98 1018.5
20260831095503 72 37 0.0 0.0 0.00 0.00 0.00 98 1018.4
20260831095005 72 37 0.0 0.0 0.00 0.00 0.00 98 1018.5
20260831094504 72 37 0.0 0.0 0.00 0.00 0.00 98 1018.4
20260831094004 72 37 0.0 0.0 0.00 0.00 0.00 98 1018.5
20260831093004 72 37 0.0 0.0 0.00 0.00 0.00 98 1018.5
20260831092504 72 37 0.0 1.0 0.00 0.00 0.00 98 1018.4
20260831092004 72 37 0.0 1.0 0.00 0.00 0.00 98 1018.4
20260831091004 72 232 0.0 0.0 0.00 0.00 0.00 98 1018.4
20260831090004 72 232 0.0 0.0 0.00 0.00 0.00 98 1018.3
20260831085504 72 232 0.0 0.0 0.00 0.00 0.00 98 1018.3
20260831085004 72 232 0.0 0.0 0.00 0.00 0.00 97 1018.3
20260831084005 73 232 0.0 1.0 0.00 0.00 0.00 97 1018.2
20260831083504 73 232 0.0 1.0 0.00 0.00 0.00 97 1018.1
20260831083004 73 232 0.0 0.0 0.00 0.00 0.00 97 1018.2
20260831082505 73 232 0.0 0.0 0.00 0.00 0.00 97 1018.3
20260831082004 73 232 0.0 0.0 0.00 0.00 0.00 97 1018.3
20260831081503 73 232 0.0 0.0 0.00 0.00 0.00 97 1018.4
20260831081003 73 232 0.0 0.0 0.00 0.00 0.00 97 1018.4
20260831080504 73 232 0.0 0.0 0.00 0.00 0.00 97 1018.4
20260831080004 73 232 0.0 0.0 0.00 0.00 0.00 97 1018.4
20260831075504 73 232 0.0 0.0 0.00 0.00 0.00 97 1018.4
20260831075004 73 232 0.0 0.0 0.00 0.00 0.00 97 1018.4
20260831074503 73 232 0.0 0.0 0.00 0.00 0.00 97 1018.4
20260831073504 73 177 0.0 0.0 0.00 0.00 0.00 97 1018.4
20260831073004 73 177 0.0 0.0 0.00 0.00 0.00 97 1018.5
20260831072004 73 177 0.0 0.0 0.00 0.00 0.00 97 1018.5
20260831071504 73 177 0.0 0.0 0.00 0.00 0.00 97 1018.5
20260831071004 73 177 0.0 0.0 0.00 0.00 0.00 97 1018.6
20260831070504 73 177 0.0 0.0 0.00 0.00 0.00 97 1018.6
20260831070004 73 177 0.0 0.0 0.00 0.00 0.00 97 1018.6
20260831065504 73 177 0.0 0.0 0.00 0.00 0.00 97 1018.7
20260831065004 73 177 0.0 0.0 0.00 0.00 0.00 97 1018.7
20260831064004 73 177 0.0 0.0 0.00 0.00 0.00 97 1018.7
20260831063504 73 177 0.0 0.0 0.00 0.00 0.00 97 1018.6
20260831063004 73 177 0.0 0.0 0.00 0.00 0.00 97 1018.6
20260831060505 73 177 0.0 0.0 0.00 0.00 0.00 97 1018.7
20260831060004 74 177 0.0 0.0 0.00 0.00 0.00 97 1018.7
20260831055504 74 177 0.0 0.0 0.00 0.00 0.00 97 1018.7
20260831055004 74 177 0.0 0.0 0.00 0.00 0.00 97 1018.8
20260831054504 74 178 0.0 0.0 0.00 0.00 0.00 97 1018.8
20260831053504 74 161 0.0 0.0 0.00 0.00 0.00 97 1018.7
20260831053004 74 161 0.0 0.0 0.00 0.00 0.00 97 1018.7
20260831052504 74 157 0.0 0.0 0.00 0.00 0.00 97 1018.7
20260831052004 74 153 0.0 0.0 0.00 0.00 0.00 97 1018.7
20260831051504 74 153 0.0 0.0 0.00 0.00 0.00 97 1018.7
20260831050504 74 153 0.0 1.0 0.00 0.00 0.00 96 1018.8
20260831050004 74 118 0.0 2.0 0.00 0.00 0.00 96 1018.8
20260831045503 74 257 0.0 2.0 0.00 0.00 0.00 96 1018.7
20260831045004 74 135 0.0 1.0 0.00 0.00 0.00 96 1018.7
20260831044504 74 135 0.0 1.0 0.00 0.00 0.00 96 1018.8
20260831043504 74 141 0.0 1.0 0.00 0.00 0.00 96 1018.8
20260831043004 74 125 0.0 1.0 0.00 0.00 0.00 96 1018.9
20260831042504 74 124 0.0 3.0 0.00 0.00 0.00 96 1018.8
20260831042004 74 215 1.0 3.0 0.00 0.00 0.00 96 1018.8
20260831041503 74 144 0.0 1.0 0.00 0.00 0.00 96 1018.9
20260831041004 74 167 0.0 0.0 0.00 0.00 0.00 96 1018.9
20260831040004 74 167 0.0 3.0 0.00 0.00 0.00 96 1019.1
20260831035504 74 166 0.0 3.0 0.00 0.00 0.00 96 1019.0
20260831035003 74 148 0.0 2.0 0.00 0.00 0.00 96 1019.1
20260831034004 74 135 0.0 3.0 0.00 0.00 0.00 96 1019.1
20260831033505 74 200 0.0 1.0 0.00 0.00 0.00 96 1019.2
20260831033004 74 238 0.0 1.0 0.00 0.00 0.00 96 1019.2
20260831032503 74 177 0.0 1.0 0.00 0.00 0.00 96 1019.1
20260831032005 74 177 0.0 1.0 0.00 0.00 0.00 96 1019.2
20260831031504 74 163 0.0 1.0 0.00 0.00 0.00 96 1019.2
20260831030505 74 154 0.0 0.0 0.00 0.00 0.00 96 1019.2
20260831030003 74 153 0.0 2.0 0.00 0.00 0.00 96 1019.3
20260831025505 74 135 0.0 2.0 0.00 0.00 0.00 96 1019.3
20260831025005 74 354 0.0 1.0 0.00 0.00 0.00 96 1019.5
20260831024504 74 163 0.0 2.0 0.00 0.00 0.00 96 1019.7
20260831024004 74 133 0.0 2.0 0.00 0.00 0.00 96 1019.6
20260831023004 74 249 0.0 1.0 0.00 0.00 0.00 96 1019.7
20260831022503 74 232 0.0 1.0 0.00 0.00 0.00 95 1019.7
20260831022004 74 232 0.0 1.0 0.00 0.00 0.00 95 1019.6
20260831021504 74 178 0.0 1.0 0.00 0.00 0.00 95 1019.5
20260831021004 74 132 0.0 0.0 0.00 0.00 0.00 95 1019.5
20260831020505 74 132 0.0 0.0 0.00 0.00 0.00 95 1019.5
20260831020004 74 132 0.0 0.0 0.00 0.00 0.00 95 1019.5
20260831015504 74 132 0.0 0.0 0.00 0.00 0.00 95 1019.6
20260831015005 74 132 0.0 0.0 0.00 0.00 0.00 95 1019.7
20260831014004 74 132 0.0 2.0 0.00 0.00 0.00 94 1019.7
20260831013504 75 131 0.0 2.0 0.00 0.00 0.00 94 1019.6
20260831013004 75 147 0.0 1.0 0.00 0.00 0.00 94 1019.7
20260831012505 75 172 0.0 2.0 0.00 0.00 0.00 94 1019.8
20260831012004 75 179 0.0 2.0 0.00 0.00 0.00 94 1019.7
20260831011504 75 205 0.0 2.0 0.00 0.00 0.00 94 1019.8
20260831011004 76 147 1.0 2.0 0.00 0.00 0.00 94 1019.8
20260831010504 76 233 0.0 1.0 0.00 0.00 0.00 93 1019.8
20260831005504 76 29 0.0 1.0 0.00 0.00 0.00 93 1019.6
20260831005005 76 29 0.0 1.0 0.00 0.00 0.00 93 1019.6
20260831004503 76 162 0.0 2.0 0.00 0.00 0.00 93 1019.5
20260831003004 76 151 0.0 3.0 0.00 0.00 0.00 93 1019.4
20260831002504 76 161 0.0 3.0 0.00 0.00 0.00 92 1019.4
20260831002004 77 174 0.0 2.0 0.00 0.00 0.00 92 1019.3
20260831001503 77 240 0.0 3.0 0.00 0.00 0.00 92 1019.3
20260831001004 77 143 1.0 3.0 0.00 0.00 0.00 92 1019.4
20260831000005 77 223 0.0 2.0 0.00 0.00 0.00 91 1019.3
20260830235504 78 155 0.0 3.0 0.00 0.00 0.00 91 1019.2
20260830235005 78 169 1.0 3.0 0.00 0.00 0.00 91 1019.3
20260830234504 78 158 0.0 3.0 0.00 0.00 0.00 90 1019.2
20260830233503 79 149 0.0 6.0 0.00 0.00 0.00 90 1019.1
20260830233004 79 153 1.0 6.0 0.00 0.00 0.00 89 1019.2
20260830232504 79 267 0.0 3.0 0.00 0.00 0.00 89 1019.3
20260830232004 79 158 0.0 5.0 0.00 0.00 0.00 88 1019.3
20260830231504 80 172 1.0 5.0 0.00 0.00 0.00 86 1019.3
20260830231004 80 145 0.0 2.0 0.00 0.00 0.00 83 1019.3
20260830230004 81 124 0.0 0.0 0.00 0.00 0.00 80 1019.3
20260830225503 81 124 0.0 0.0 0.00 0.00 0.00 79 1019.2
20260830225005 81 124 0.0 1.0 0.00 0.00 0.00 78 1019.2
20260830224504 81 124 0.0 1.0 0.00 0.00 0.00 78 1019.2
20260830224004 81 125 0.0 1.0 0.00 0.00 0.00 78 1019.2
20260830223505 82 132 0.0 0.0 0.00 0.00 0.00 77 1019.2
20260830223004 82 133 0.0 0.0 0.00 0.00 0.00 76 1019.1
20260830222504 82 142 0.0 0.0 0.00 0.00 0.00 75 1019.0
20260830222003 83 150 0.0 2.0 0.00 0.00 0.00 74 1019.0
20260830221004 83 157 0.0 2.0 0.00 0.00 0.00 72 1018.9